Weather History for Palma De Mallorca / Son San Juan, Spain

Change the Weather History Date:

Thursday, May 9, 2013

  Actual Average Record
Temperature  
Mean Temperature 70 °F -  
Max Temperature 80 °F 75 °F - ()
Min Temperature 60 °F 55 °F - ()
Cooling Degree Days 5    
Growing Degree Days 20 (Base 50)    
Moisture  
Dew Point 58 °F    
Average Humidity 69    
Maximum Humidity 94    
Minimum Humidity 30    
Precipitation  
Precipitation 0.00 in 0.03 in - ()
Sea Level Pressure  
Sea Level Pressure 29.98 in    
Wind  
Wind Speed 4 mph ()    
Max Wind Speed 15 mph    
Max Gust Speed -    
Visibility 9.3 miles    
Events      
T = Trace of Precipitation, MM = Missing Value Source: Averaged Metar Reports

Daily Weather History Graph

Daily Weather History Graph

Search for Another Location

Airport:

Trip Planner

Search our weather history database for the weather conditions in past years. The results will help you decide how hot, cold, wet, or windy it might be!

Date:

Astronomy

May. 09, 2013 Rise Set
Actual Time 6:40 AM CEST 8:50 PM CEST
Civil Twilight 6:10 AM CEST 9:20 PM CEST
Nautical Twilight 5:34 AM CEST 9:57 PM CEST
Astronomical Twilight 4:54 AM CEST 10:37 PM CEST
Moon 6:15 AM CEST (5/9) 8:31 PM CEST (5/9)
Length of Visible Light 15h 09m
Length of Day
14h 09m
Waning Crescent, 0% of the Moon is Illuminated
May 9
Waning Crescent
May 10
New
May 18
First Quarter
May 25
Full
May 31
Last Quarter

Hourly Weather History & Observations

Time (CEST) Temp. Dew Point Humidity Pressure Visibility Wind Dir Wind Speed Gust Speed Precip Events Conditions
12:00 AM 68.0 °F 57.2 °F 68% 30.01 in - ENE 3.5 mph - N/A   Clear
12:30 AM 66.2 °F 59.0 °F 78% 30.01 in - NE 3.5 mph - N/A   Clear
1:00 AM 66.2 °F 57.2 °F 73% 30.01 in - Calm Calm - N/A   Clear
1:30 AM 66.2 °F 57.2 °F 73% 30.01 in - Calm Calm - N/A   Clear
2:00 AM 65 °F 57 °F 69% 30.01 in 12 mi Calm Calm - -   Mostly Cloudy
2:00 AM 66.2 °F 59.0 °F 78% 29.98 in - Calm Calm - N/A   Clear
2:30 AM 64.4 °F 59.0 °F 83% 29.98 in - North 1.2 mph - N/A   Clear
3:00 AM 64.4 °F 59.0 °F 83% 29.98 in - NE 2.3 mph - N/A   Clear
3:30 AM 62.6 °F 57.2 °F 82% 29.98 in - NE 2.3 mph - N/A   Clear
4:00 AM 62.6 °F 57.2 °F 82% 29.98 in - NNE 1.2 mph - N/A   Clear
4:30 AM 62.6 °F 59.0 °F 88% 29.98 in - Calm Calm - N/A   Clear
5:00 AM 62.6 °F 59.0 °F 88% 29.98 in - ENE 1.2 mph - N/A   Clear
5:30 AM 62.6 °F 57.2 °F 82% 29.98 in - Calm Calm - N/A   Clear
6:00 AM 62.6 °F 57.2 °F 82% 29.98 in - Calm Calm - N/A   Clear
6:30 AM 62.6 °F 55.4 °F 77% 29.98 in - NE 6.9 mph - N/A   Clear
7:00 AM 62.6 °F 55.4 °F 77% 29.98 in - NE 4.6 mph - N/A   Clear
7:30 AM 64.4 °F 57.2 °F 77% 29.98 in - Variable 1.2 mph - N/A   Clear
8:00 AM 66 °F 56 °F 63% 30.01 in 16 mi East 6.9 mph - -   Mostly Cloudy
8:00 AM 66.2 °F 59.0 °F 78% 30.01 in - ENE 3.5 mph - N/A   Clear
8:30 AM 68.0 °F 59.0 °F 73% 30.01 in 6.2 mi NE 8.1 mph - N/A   Partly Cloudy
9:00 AM 68.0 °F 60.8 °F 78% 30.01 in 6.2 mi NE 9.2 mph - N/A   Partly Cloudy
9:30 AM 68.0 °F 60.8 °F 78% 30.01 in - NE 8.1 mph - N/A   Clear
10:00 AM 71.6 °F 59.0 °F 64% 30.01 in - NE 9.2 mph - N/A   Clear
10:30 AM 71.6 °F 60.8 °F 69% 30.01 in - ENE 4.6 mph - N/A   Clear
11:00 AM 71.6 °F 60.8 °F 69% 30.01 in - NNE 4.6 mph - N/A   Clear
11:30 AM 73.4 °F 59.0 °F 61% 30.01 in 6.2 mi ENE 4.6 mph - N/A   Partly Cloudy
12:00 PM 75.2 °F 59.0 °F 57% 30.01 in 6.2 mi ENE 3.5 mph - N/A   Partly Cloudy
12:30 PM 78.8 °F 59.0 °F 51% 30.01 in - SSE 1.2 mph - N/A   Clear
1:00 PM 78.8 °F 59.0 °F 51% 30.01 in - SW 8.1 mph - N/A   Clear
1:30 PM 75.2 °F 60.8 °F 61% 30.01 in - SW 9.2 mph - N/A   Clear
2:00 PM 78 °F 58 °F 40% 30.02 in 19 mi SW 11.5 mph - -   Mostly Cloudy
2:00 PM 77.0 °F 60.8 °F 57% 29.98 in - WSW 11.5 mph - N/A   Clear
2:30 PM 75.2 °F 59.0 °F 57% 29.98 in - WSW 10.4 mph - N/A   Clear
3:00 PM 77.0 °F 59.0 °F 54% 29.98 in - WSW 11.5 mph - N/A   Clear
3:30 PM 78.8 °F 50.0 °F 36% 29.98 in 6.2 mi WSW 12.7 mph - N/A   Partly Cloudy
4:00 PM 78.8 °F 48.2 °F 34% 29.98 in 6.2 mi SW 13.8 mph - N/A   Partly Cloudy
4:30 PM 78.8 °F 44.6 °F 30% 29.95 in 6.2 mi SW 13.8 mph - N/A   Partly Cloudy
5:00 PM 77.0 °F 48.2 °F 36% 29.95 in - SW 15.0 mph - N/A   Clear
5:30 PM 75.2 °F 53.6 °F 47% 29.98 in - SW 12.7 mph - N/A   Clear
6:00 PM 71.6 °F 57.2 °F 60% 29.95 in - SW 10.4 mph - N/A   Clear
6:30 PM 71.6 °F 59.0 °F 64% 29.95 in - SW 9.2 mph - N/A   Clear
7:00 PM 71.6 °F 59.0 °F 64% 29.95 in - SW 9.2 mph - N/A   Clear
8:00 PM 70 °F 60 °F 63% 29.95 in 12 mi SW 10.4 mph - -   Scattered Clouds
8:00 PM 69.8 °F 60.8 °F 73% 29.95 in - WSW 9.2 mph - N/A   Clear
8:30 PM 68.0 °F 60.8 °F 78% 29.95 in - SW 5.8 mph - N/A   Clear
9:00 PM 66.2 °F 62.6 °F 88% 29.95 in - WSW 4.6 mph - N/A   Clear
9:30 PM 66.2 °F 62.6 °F 88% 29.95 in - WSW 5.8 mph - N/A   Clear
10:00 PM 64.4 °F 62.6 °F 94% 29.95 in - WSW 3.5 mph - N/A   Clear
10:30 PM 64.4 °F 62.6 °F 94% 29.98 in - Variable 2.3 mph - N/A   Clear
11:00 PM 64.4 °F 62.6 °F 94% 29.98 in - Calm Calm - N/A   Clear
11:30 PM 64.4 °F 62.6 °F 94% 29.98 in - Calm Calm - N/A   Clear